Location: Capelle
(50.3413°N, 1.9974°E)
Time: 20:18:24
(UTC+00:00)

Nadezhda 3 Rocket - Pass Details

Date: 12 January 2026
Orbit: 956 x 997 km, 82.9° (Epoch: 16 February)

Event Time Altitude Azimuth Distance (km) Brightness Sun altitude
Rises 18:14:10 0° 165° (SSE) 3,626 7.0 -18.6°
Reaches altitude 10° 18:16:45 10° 160° (SSE) 2,682 6.2 -19.0°
Maximum altitude 18:22:30 45° 90° (E) 1,293 4.2 -19.9°
Enters shadow 18:27:27 14° 23° (NNE) 2,407 5.8 -20.6°
